North Platte, NE

8:25 AM CST on February 12, 2016 (GMT -0600)
North Platte Regional-Bird

Weather History for KLBF - February, 2011

Change the Weather History Date:

Thursday, February 24, 2011

  Actual Average Record
Temperature  
Mean Temperature 17 °F 32 °F  
Max Temperature 25 °F 46 °F 73 °F (1995)
Min Temperature 9 °F 17 °F -12 °F (1960)
Degree Days  
Heating Degree Days 48 33  
Month to date heating degree days 944 877  
Since 1 July heating degree days 4893 4897  
Cooling Degree Days 0 0  
Month to date cooling degree days 0 0  
Year to date cooling degree days 0 0  
Moisture  
Dew Point 12 °F    
Average Humidity 77    
Maximum Humidity 92    
Minimum Humidity 62    
Precipitation  
Precipitation 0.03 in 0.02 in 0.42 in (2007)
Month to date precipitation 0.56 0.40  
Year to date precipitation 1.61 0.74  
Snow  
Snow 0.40 in 0.10 in 2.50 in (2007)
Month to date snowfall 5.5 4.5  
Since 1 July snowfall 28.3 20.1  
Snow Depth T in    
Sea Level Pressure  
Sea Level Pressure 30.15 in    
Wind  
Wind Speed 13 mph (NNE)    
Max Wind Speed 21 mph    
Max Gust Speed 26 mph    
Visibility 8 miles    
Events Snow    
T = Trace of Precipitation, MM = Missing Value Source: NWS Daily Summary

Daily Weather History Graph

Daily Weather History Graph

Search for Another Location

Airport or City:

Trip Planner

Search our weather history database for the weather conditions in past years. The results will help you decide how hot, cold, wet, or windy it might be!

Date:

Astronomy

Feb. 24, 2011 Rise Set
Actual Time 7:24 AM CST 6:27 PM CST
Civil Twilight 6:57 AM CST 6:55 PM CST
Nautical Twilight 6:25 AM CST 7:27 PM CST
Astronomical Twilight 5:53 AM CST 7:59 PM CST
Moon 1:27 AM CST (2/24) 10:56 AM CST (2/24)
Length of Visible Light 11h 58m
Length of Day
11h 02m
Waning Gibbous, 53% of the Moon is Illuminated
Feb 24
Waning Gibbous
Feb 24
Last Quarter
Mar 4
New
Mar 12
First Quarter
Mar 19
Full

Hourly Weather History & Observations

Time (CST) Temp. Windchill Dew Point Humidity Pressure Visibility Wind Dir Wind Speed Gust Speed Precip Events Conditions
12:53 AM 24.1 °F 15.2 °F 21.9 °F 91% 30.06 in 10.0 mi ENE 8.1 mph 18.4 mph N/A   Overcast
1:53 AM 24.1 °F 14.4 °F 21.9 °F 91% 30.07 in 10.0 mi ENE 9.2 mph - N/A   Overcast
2:53 AM 21.9 °F 11.0 °F 19.0 °F 89% 30.08 in 10.0 mi NE 10.4 mph - N/A   Overcast
3:53 AM 21.0 °F 9.3 °F 19.0 °F 92% 30.07 in 10.0 mi NE 11.5 mph - N/A   Overcast
4:53 AM 19.9 °F 8.6 °F 18.0 °F 92% 30.10 in 10.0 mi NNE 10.4 mph - N/A   Overcast
5:53 AM 19.0 °F 7.5 °F 17.1 °F 92% 30.12 in 10.0 mi NNE 10.4 mph - N/A   Overcast
6:53 AM 19.0 °F 7.5 °F 16.0 °F 88% 30.12 in 10.0 mi NE 10.4 mph - N/A   Overcast
7:53 AM 18.0 °F 5.4 °F 15.1 °F 88% 30.12 in 8.0 mi NE 11.5 mph - N/A   Overcast
8:50 AM 19.4 °F 5.0 °F 15.8 °F 86% 30.03 in 8.0 mi NNE 16.1 mph 19.6 mph N/A   Overcast
8:53 AM 19.0 °F 5.0 °F 15.1 °F 85% 30.13 in 8.0 mi NE 15.0 mph - N/A   Overcast
9:53 AM 19.9 °F 6.7 °F 15.1 °F 81% 30.15 in 8.0 mi NE 13.8 mph - N/A   Overcast
10:53 AM 23.0 °F 11.7 °F 14.0 °F 68% 30.14 in 10.0 mi NE 11.5 mph 19.6 mph N/A   Overcast
11:33 AM 21.2 °F 8.3 °F 12.2 °F 68% 30.03 in 10.0 mi NE 13.8 mph - N/A   Scattered Clouds
11:53 AM 21.9 °F 9.8 °F 12.9 °F 68% 30.14 in 10.0 mi NNE 12.7 mph 19.6 mph N/A   Mostly Cloudy
12:53 PM 23.0 °F 11.1 °F 12.9 °F 65% 30.15 in 10.0 mi NE 12.7 mph - N/A   Overcast
1:53 PM 21.9 °F 8.7 °F 12.9 °F 68% 30.15 in 10.0 mi NE 15.0 mph - N/A   Overcast
2:53 PM 21.9 °F 8.7 °F 12.0 °F 66% 30.14 in 10.0 mi NNE 15.0 mph - N/A   Overcast
3:53 PM 21.9 °F 8.2 °F 10.9 °F 63% 30.14 in 10.0 mi NNE 16.1 mph 23.0 mph N/A   Overcast
4:53 PM 19.9 °F 5.7 °F 9.0 °F 62% 30.15 in 10.0 mi NE 16.1 mph 21.9 mph N/A   Overcast
5:53 PM 17.1 °F 1.5 °F 8.1 °F 68% 30.17 in 10.0 mi NE 17.3 mph - N/A   Overcast
6:53 PM 15.1 °F -1.1 °F 7.0 °F 70% 30.20 in 10.0 mi NE 17.3 mph - N/A   Overcast
7:53 PM 15.1 °F -1.1 °F 7.0 °F 70% 30.23 in 10.0 mi NNE 17.3 mph 25.3 mph N/A   Overcast
8:53 PM 12.9 °F 1.6 °F 6.1 °F 74% 30.25 in 10.0 mi NNE 8.1 mph - N/A   Overcast
9:53 PM 12.0 °F -1.3 °F 5.0 °F 73% 30.28 in 4.0 mi NNE 10.4 mph - 0.00 in Snow Light Snow
10:14 PM 10.4 °F -4.1 °F 5.0 °F 79% 30.15 in 4.0 mi NNE 11.5 mph - 0.00 in Snow Light Snow
10:53 PM 10.9 °F -2.6 °F 5.0 °F 77% 30.30 in 7.0 mi NNE 10.4 mph - 0.00 in Snow Light Snow
11:03 PM 10.4 °F -4.8 °F 5.0 °F 79% 30.17 in 2.5 mi North 12.7 mph - 0.00 in Snow Light Snow
11:06 PM 10.4 °F -4.1 °F 5.0 °F 79% 30.17 in 1.5 mi North 11.5 mph - 0.01 in Snow Light Snow
11:10 PM 10.4 °F -3.3 °F 5.0 °F 79% 30.17 in 1.0 mi North 10.4 mph - 0.01 in Snow Light Snow
11:16 PM 10.4 °F -4.1 °F 6.8 °F 85% 30.18 in 1.0 mi North 11.5 mph - 0.01 in Snow Light Snow
11:53 PM 9.0 °F -5.9 °F 3.9 °F 80% 30.31 in 1.0 mi North 11.5 mph - 0.03 in Snow Light Snow